Regional Weather Roundup
Issued by NWS State College, PA

Home | Current Version | Previous Version | Text Only | Print | Product List | Glossary On
Versions: 1 2 3 4 5 6 7 8 9 10 11 12 13 14 15 16 17 18 19 20 21 22 23 24 25 26 27 28 29 30 31 32 33 34 35 36 37 38 39 40 41 42 43 44 45 46 47 48 49 50
000
ASUS41 KCTP 010210
RWRCTP

REGIONAL WEATHER ROUNDUP
NATIONAL WEATHER SERVICE STATE COLLEGE PA
1000 PM EDT MON AUG 31 2015

Note: "fair" indicates few or no clouds below 12,000 feet with no
significant weather and/or obstructions to visibility.

* = STATION THAT DOES NOT REPORT PRECIPITATION /E.G. RAIN...SNOW...ETC/
    THUNDER OR FOG.

PAZ002>004-007>009-013>016-020>023-029>032-010300-
WESTERN PENNSYLVANIA

CITY           SKY/WX    TMP DP  RH WIND       PRES   REMARKS
ERIE           CLEAR     70  65  84 CALM      30.07R
MEADVILLE      CLEAR     72  63  73 SW3       30.10S
FRANKLIN*      CLEAR     70  64  83 CALM      30.13R
NEW CASTLE     FAIR      71  71 100 CALM      30.10R
BEAVER COUNTY  NOT AVBL
BUTLER*        CLEAR     70  66  88 CALM      30.12R
PITTSBURGH INT PTCLDY    78  65  63 W3        30.09R
PITTSBURGH     CLEAR     80  59  48 W5        30.09R
INDIANA*       CLEAR     70  66  88 CALM      30.13R
LATROBE        PTCLDY    72  66  83 CALM      30.10R
WASHINGTON CO* CLEAR     66  64  94 CALM      30.11R
$$

PAZ004>006-010>012-017>019-024>028-033>037-041-042-045-046-049>053-010300-
CENTRAL PENNSYLVANIA

CITY           SKY/WX    TMP DP  RH WIND       PRES   REMARKS
BRADFORD       CLEAR     68  62  81 VRB3      30.12S
DUBOIS         CLEAR     74  65  73 NW3       30.11R
CLEARFIELD     CLEAR     71  65  81 CALM      30.10R
JOHNSTOWN      CLEAR     74  60  61 N5        30.15R
ALTOONA        CLEAR     68  65  90 S3        30.11R
STATE COLLEGE  NOT AVBL
WILLIAMSPORT   CLEAR     74  70  87 SW3       30.01R
SELINSGROVE    PTCLDY    72  69  90 CALM      30.03R
FT INDIANTOWN  CLEAR     71  68  90 CALM      30.04R
CAPITAL CITY   CLEAR     77  66  68 W5        30.03R
HARRISBURG     PTCLDY    78  68  71 CALM      30.02S
YORK           CLEAR     68  66  93 CALM      30.05R
$$

PAZ038>040-043-044-047-048-054-055-060>062-067>071-010300-
EASTERN PENNSYLVANIA

CITY           SKY/WX    TMP DP  RH WIND       PRES   REMARKS
SCRANTON       PTCLDY    76  68  76 CALM      30.04R
MOUNT POCONO   MOCLDY    69  64  84 N3        30.09R
ALLENTOWN      CLEAR     78  68  71 W5        30.02R
QUAKERTOWN*    CLEAR     73  68  83 CALM      30.04S
READING        CLEAR     77  67  71 S3        30.02R
LANCASTER      CLEAR     78  68  71 SW3       30.04R
COATESVILLE    CLEAR     75  70  83 SW3       30.06S
POTTSTOWN      CLEAR     78  71  79 SW3       30.05R
BLUE BELL      CLEAR     75  70  83 CALM      30.03R
DOYLESTOWN     CLEAR     77  70  79 SW5       30.02R
WILLOW GROVE   NOT AVBL
NORTH PHILA    CLEAR     81  66  60 SW8       30.03R
PHILADELPHIA   CLEAR     81  67  62 SW14      30.03R
$$


USA.gov is the U.S. government's official web portal to all federal, state and local government web resources and services.